Weather History for Aberdeen / Amory, MS

Change the Weather History Date:

Wednesday, February 6, 2013

  Actual Average (KCBM) Record (KCBM)
Temperature  
Mean Temperature 53 °F -  
Max Temperature 73 °F 54 °F 75 °F (1999)
Min Temperature 33 °F 36 °F 21 °F (2000)
Degree Days  
Heating Degree Days 12    
Growing Degree Days 3 (Base 50)    
Moisture  
Dew Point 46 °F    
Average Humidity 80    
Maximum Humidity 94    
Minimum Humidity 52    
Precipitation  
Precipitation 0.00 in - - ()
Sea Level Pressure  
Sea Level Pressure 30.12 in    
Wind  
Wind Speed 1 mph (SE)    
Max Wind Speed 8 mph    
Max Gust Speed -    
Visibility 6 miles    
Events Fog    
Averages and records for this station are not official NWS values.
T = Trace of Precipitation, MM = Missing Value Source: NWS Daily Summary

Daily Weather History Graph

Daily Weather History Graph

Search for Another Location

Airport:

Trip Planner

Search our weather history database for the weather conditions in past years. The results will help you decide how hot, cold, wet, or windy it might be!

Date:

Astronomy

Feb. 06, 2013 Rise Set
Actual Time 6:46 AM CST 5:29 PM CST
Civil Twilight 6:20 AM CST 5:55 PM CST
Nautical Twilight 5:51 AM CST 6:25 PM CST
Astronomical Twilight 5:21 AM CST 6:54 PM CST
Moon 3:24 AM CST (2/6) 1:53 PM CST (2/6)
Length of Visible Light 11h 35m
Length of Day
10h 43m
Waning Crescent, 17% of the Moon is Illuminated
Feb 6
Waning Crescent
Feb 10
New
Feb 17
First Quarter
Feb 25
Full
Mar 4
Last Quarter

Hourly Weather History & Observations

Time (CST) Temp. Windchill Dew Point Humidity Pressure Visibility Wind Dir Wind Speed Gust Speed Precip Events Conditions
12:15 AM 42.8 °F - 41.0 °F 93% 30.08 in 0.2 mi North - - N/A Fog Fog
12:35 AM 44.6 °F - 42.8 °F 93% 30.08 in 0.2 mi Calm Calm - N/A Fog Fog
12:55 AM 44.6 °F - 42.8 °F 93% 30.09 in 0.2 mi Calm Calm - N/A Fog Fog
1:15 AM 42.8 °F - 41.0 °F 93% 30.09 in 0.2 mi Calm Calm - N/A Fog Fog
1:35 AM 42.8 °F - 41.0 °F 93% 30.09 in 0.2 mi Calm Calm - N/A Fog Fog
1:55 AM 42.8 °F - 41.0 °F 93% 30.10 in 0.2 mi North - - N/A Fog Fog
2:15 AM 42.8 °F - 41.0 °F 93% 30.09 in 0.2 mi Calm Calm - N/A Fog Fog
2:35 AM 42.8 °F - 39.2 °F 87% 30.09 in 0.2 mi Calm Calm - N/A Fog Fog
2:55 AM 41.0 °F - 39.2 °F 93% 30.10 in 0.2 mi Calm Calm - N/A Fog Fog
3:15 AM 41.0 °F - 37.4 °F 87% 30.10 in 0.2 mi Calm Calm - N/A Fog Fog
3:35 AM 41.0 °F - 37.4 °F 87% 30.11 in 0.2 mi Calm Calm - N/A Fog Fog
4:15 AM 39.2 °F - 37.4 °F 93% 30.12 in 0.2 mi Calm Calm - N/A Fog Fog
4:35 AM 41.0 °F - 37.4 °F 87% 30.12 in 0.2 mi Calm Calm - N/A Fog Fog
4:55 AM 39.2 °F - 35.6 °F 87% 30.13 in 0.2 mi Calm Calm - N/A Fog Fog
5:15 AM 39.2 °F 35.0 °F 35.6 °F 87% 30.13 in 0.2 mi North 5.8 mph - N/A Fog Fog
5:35 AM 39.2 °F - 35.6 °F 87% 30.14 in 0.2 mi Calm Calm - N/A Fog Fog
5:55 AM 37.4 °F 34.9 °F 33.8 °F 87% 30.14 in 0.2 mi NNE 3.5 mph - N/A Fog Fog
6:15 AM 37.4 °F 34.9 °F 33.8 °F 87% 30.14 in 0.2 mi North 3.5 mph - N/A Fog Fog
6:35 AM 35.6 °F - 32.0 °F 87% 30.16 in 0.2 mi Calm Calm - N/A Fog Fog
6:55 AM 35.6 °F - 32.0 °F 87% 30.17 in 0.2 mi Calm Calm - N/A Fog Fog
7:15 AM 33.8 °F - 32.0 °F 93% 30.17 in 0.2 mi North - - N/A Fog Fog
7:35 AM 35.6 °F - 32.0 °F 87% 30.17 in 0.2 mi Calm Calm - N/A Fog Fog
7:55 AM 37.4 °F - 33.8 °F 87% 30.18 in 0.2 mi Calm Calm - N/A Fog Fog
8:15 AM 41.0 °F - 37.4 °F 87% 30.18 in 0.8 mi Calm Calm - N/A   Overcast
8:35 AM 42.8 °F - 37.4 °F 81% 30.18 in 4.0 mi Calm Calm - N/A   Haze
8:55 AM 46.4 °F - 39.2 °F 76% 30.18 in 7.0 mi Calm Calm - N/A   Clear
9:35 AM 50.0 °F - 41.0 °F 71% 30.20 in 8.0 mi Calm Calm - N/A   Clear
9:55 AM 53.6 °F - 42.8 °F 67% 30.21 in 9.0 mi Calm Calm - N/A   Clear
10:15 AM 55.4 °F - 42.8 °F 63% 30.21 in 7.0 mi SSW 3.5 mph - N/A   Clear
10:35 AM 60.8 °F - 44.6 °F 55% 30.21 in 9.0 mi South 3.5 mph - N/A   Clear
11:15 AM 62.6 °F - 46.4 °F 55% 30.19 in 9.0 mi SE 3.5 mph - N/A   Clear
11:35 AM 66.2 °F - 48.2 °F 52% 30.18 in 10.0 mi East 4.6 mph - N/A   Clear
11:55 AM 68.0 °F - 51.8 °F 56% 30.17 in 10.0 mi South 4.6 mph - N/A   Clear
12:15 PM 68.0 °F - 51.8 °F 56% 30.17 in 9.0 mi South 8.1 mph - N/A   Clear
12:35 PM 69.8 °F - 51.8 °F 53% 30.16 in 9.0 mi SSW 6.9 mph - N/A   Clear
12:55 PM 68.0 °F - 51.8 °F 56% 30.15 in 9.0 mi SSW 5.8 mph - N/A   Clear
1:15 PM 66.2 °F - 53.6 °F 64% 30.15 in 9.0 mi South 3.5 mph - N/A   Partly Cloudy
1:55 PM 73.4 °F - 59.0 °F 61% 30.12 in 8.0 mi Calm Calm - N/A   Clear
2:15 PM 68.0 °F - 57.2 °F 68% 30.12 in 9.0 mi Calm Calm - N/A   Clear
2:35 PM 69.8 °F - 57.2 °F 64% 30.12 in 9.0 mi South 3.5 mph - N/A   Clear
2:55 PM 69.8 °F - 60.8 °F 73% 30.11 in 9.0 mi Calm Calm - N/A   Clear
3:15 PM 69.8 °F - 60.8 °F 73% 30.11 in 10.0 mi Calm Calm - N/A   Clear
3:35 PM 69.8 °F - 62.6 °F 78% 30.10 in 10.0 mi East 3.5 mph - N/A   Clear
3:55 PM 71.6 °F - 64.4 °F 78% 30.08 in 9.0 mi NE 3.5 mph - N/A   Clear
4:15 PM 69.8 °F - 62.6 °F 78% 30.08 in 9.0 mi Calm Calm - N/A   Clear
4:35 PM 66.2 °F - 60.8 °F 83% 30.08 in 9.0 mi Calm Calm - N/A   Clear
4:55 PM 66.2 °F - 60.8 °F 83% 30.09 in 9.0 mi Calm Calm - N/A   Clear
5:15 PM 62.6 °F - 57.2 °F 82% 30.07 in 9.0 mi Calm Calm - N/A   Clear
5:35 PM 57.2 °F - 55.4 °F 94% 30.07 in 9.0 mi East 3.5 mph - N/A   Clear
5:55 PM 55.4 °F - 51.8 °F 88% 30.08 in 10.0 mi North - - N/A   Clear
6:15 PM 53.6 °F - 51.8 °F 94% 30.09 in 10.0 mi Calm Calm - N/A   Clear
6:35 PM 53.6 °F - 51.8 °F 94% 30.10 in 9.0 mi Calm Calm - N/A   Clear
7:15 PM 51.8 °F - 50.0 °F 94% 30.11 in 10.0 mi Calm Calm - N/A   Clear
7:55 PM 51.8 °F - 50.0 °F 94% 30.10 in 10.0 mi Calm Calm - N/A   Clear
8:15 PM 51.8 °F - 48.2 °F 88% 30.10 in 10.0 mi Calm Calm - N/A   Clear
8:35 PM 50.0 °F - 46.4 °F 87% 30.09 in 10.0 mi Calm Calm - N/A   Clear
8:55 PM 51.8 °F - 48.2 °F 88% 30.08 in 10.0 mi Calm Calm - N/A   Clear
9:15 PM 51.8 °F - 48.2 °F 88% 30.08 in 10.0 mi Calm Calm - N/A   Clear
9:35 PM 51.8 °F - 46.4 °F 82% 30.08 in 10.0 mi Calm Calm - N/A   Clear
9:55 PM 51.8 °F - 46.4 °F 82% 30.07 in 10.0 mi Calm Calm - N/A   Clear
10:15 PM 51.8 °F - 44.6 °F 76% 30.06 in 10.0 mi East 3.5 mph - N/A   Clear
10:55 PM 55.4 °F - 46.4 °F 72% 30.06 in 10.0 mi Calm Calm - N/A   Clear
11:15 PM 55.4 °F - 46.4 °F 72% 30.06 in 10.0 mi Calm Calm - N/A   Scattered Clouds
11:35 PM 55.4 °F - 46.4 °F 72% 30.07 in 10.0 mi Calm Calm - N/A   Partly Cloudy
11:55 PM 55.4 °F - 46.4 °F 72% 30.08 in 10.0 mi Calm Calm - N/A   Scattered Clouds